TUI4262 EDDF-LGRP

Flight info

Callsign TUI4262
Flight time N/A
Altitude 35000
Route CINDY5L CINDY Z74 LAMPU DCT NOMBO Y161 MAH DCT LATLO DCT OBEDI DCT TEBLI DCT MEDUX/N0443F370 UM867 KOGAT DCT ERANA DCT TSL UN130 MES UN139 LURUS UL995 USINI/N0376F230 L995 CODIC CODIC1K
Aircraft A320/M-SDE3FGHIRWY/LB1

Departure

Time 2026-04-18 11:30
Airport Frankfurt Main Airport (EDDF)

Arrival

Time N/A
Airport Rhodes International Airport "Diagoras" (LGRP)
Time Latitude Longitude Altitude Speed Heading
2026-04-18 10:42 50.04877 8.58972 365 ft 0 kts 340°
2026-04-18 11:13 50.04861 8.58981 365 ft 4 kts 340°
2026-04-18 11:14 50.04835 8.58996 368 ft 4 kts 340°
2026-04-18 11:14 50.04810 8.59010 371 ft 4 kts 340°
2026-04-18 11:14 50.04794 8.59019 368 ft 0 kts 340°
2026-04-18 11:18 50.04797 8.59017 368 ft 1 kts 335°
2026-04-18 11:18 50.04798 8.59009 368 ft 1 kts 292°
2026-04-18 11:18 50.04791 8.58993 368 ft 2 kts 240°
2026-04-18 11:18 50.04770 8.58935 368 ft 8 kts 239°
2026-04-18 11:19 50.04746 8.58854 369 ft 10 kts 250°
2026-04-18 11:19 50.04765 8.58755 369 ft 11 kts 327°
2026-04-18 11:19 50.04864 8.58695 365 ft 18 kts 339°
2026-04-18 11:19 50.04933 8.58621 359 ft 12 kts 282°
2026-04-18 11:20 50.04911 8.58509 361 ft 10 kts 248°
2026-04-18 11:20 50.04888 8.58417 363 ft 8 kts 249°
2026-04-18 11:20 50.04864 8.58312 362 ft 14 kts 250°
2026-04-18 11:20 50.04832 8.58175 360 ft 13 kts 249°
2026-04-18 11:21 50.04799 8.58050 361 ft 12 kts 248°
2026-04-18 11:21 50.04737 8.57932 360 ft 18 kts 219°
2026-04-18 11:21 50.04677 8.57772 359 ft 17 kts 250°
2026-04-18 11:21 50.04635 8.57595 360 ft 18 kts 249°
2026-04-18 11:22 50.04592 8.57414 361 ft 18 kts 250°
2026-04-18 11:22 50.04547 8.57226 359 ft 19 kts 249°
2026-04-18 11:22 50.04500 8.57032 361 ft 20 kts 250°
2026-04-18 11:22 50.04469 8.56899 363 ft 19 kts 250°
2026-04-18 11:23 50.04421 8.56702 360 ft 21 kts 249°
2026-04-18 11:23 50.04369 8.56483 363 ft 22 kts 250°
2026-04-18 11:23 50.04313 8.56247 355 ft 24 kts 249°
2026-04-18 11:23 50.04252 8.55998 362 ft 25 kts 249°
2026-04-18 11:24 50.04189 8.55729 357 ft 27 kts 250°
2026-04-18 11:24 50.04124 8.55455 358 ft 22 kts 249°
2026-04-18 11:24 50.04075 8.55255 358 ft 20 kts 249°
2026-04-18 11:24 50.04026 8.55051 355 ft 21 kts 250°
2026-04-18 11:25 50.03975 8.54832 356 ft 23 kts 249°
2026-04-18 11:25 50.03918 8.54593 351 ft 25 kts 250°
2026-04-18 11:25 50.03866 8.54381 352 ft 16 kts 244°
2026-04-18 11:25 50.03807 8.54243 347 ft 15 kts 239°
2026-04-18 11:26 50.03771 8.54103 347 ft 13 kts 249°
2026-04-18 11:26 50.03740 8.53975 350 ft 12 kts 250°
2026-04-18 11:26 50.03708 8.53840 349 ft 16 kts 250°
2026-04-18 11:26 50.03665 8.53660 345 ft 19 kts 249°
2026-04-18 11:27 50.03615 8.53463 339 ft 20 kts 250°
2026-04-18 11:27 50.03563 8.53250 336 ft 22 kts 249°
2026-04-18 11:27 50.03508 8.53018 335 ft 24 kts 250°
2026-04-18 11:27 50.03451 8.52801 336 ft 19 kts 246°
2026-04-18 11:28 50.03406 8.52636 334 ft 12 kts 246°
2026-04-18 11:28 50.03361 8.52592 335 ft 5 kts 178°
2026-04-18 11:28 50.03359 8.52592 335 ft 0 kts 178°
2026-04-18 11:29 50.03347 8.52593 335 ft 9 kts 178°
2026-04-18 11:29 50.03044 8.52598 335 ft 81 kts 179°
2026-04-18 11:29 50.02267 8.52606 333 ft 140 kts 179°
2026-04-18 11:30 50.01137 8.52617 454 ft 174 kts 179°
2026-04-18 11:30 49.99954 8.52634 1146 ft 169 kts 180°
2026-04-18 11:30 49.98781 8.52639 1838 ft 170 kts 181°
2026-04-18 11:30 49.97539 8.52765 2178 ft 188 kts 163°
2026-04-18 11:31 49.96383 8.53823 2511 ft 204 kts 136°
2026-04-18 11:31 49.95511 8.55672 2819 ft 224 kts 118°
2026-04-18 11:31 49.94738 8.57879 3313 ft 236 kts 118°
2026-04-18 11:31 49.94070 8.60251 3877 ft 250 kts 111°
2026-04-18 11:32 49.93207 8.62728 4337 ft 269 kts 123°
2026-04-18 11:32 49.92215 8.65239 5150 ft 276 kts 122°
2026-04-18 11:32 49.91220 8.67791 6040 ft 278 kts 123°
2026-04-18 11:32 49.90218 8.70366 6933 ft 279 kts 123°
2026-04-18 11:33 49.89205 8.72957 7702 ft 283 kts 123°
2026-04-18 11:33 49.88173 8.75577 8457 ft 287 kts 123°
2026-04-18 11:33 49.87124 8.78238 9202 ft 291 kts 123°
2026-04-18 11:33 49.85879 8.80719 9933 ft 294 kts 135°
2026-04-18 11:34 49.84482 8.83039 10465 ft 306 kts 135°
2026-04-18 11:34 49.82968 8.85532 10657 ft 329 kts 135°
2026-04-18 11:34 49.81344 8.88192 10929 ft 348 kts 135°
2026-04-18 11:34 49.79641 8.90989 11497 ft 355 kts 135°
2026-04-18 11:35 49.77964 8.93745 12124 ft 360 kts 135°
2026-04-18 11:35 49.76234 8.96582 12766 ft 365 kts 135°
2026-04-18 11:35 49.74477 8.99460 13399 ft 370 kts 135°
2026-04-18 11:35 49.72700 9.02373 14037 ft 375 kts 135°
2026-04-18 11:36 49.70903 9.05319 14605 ft 379 kts 135°
2026-04-18 11:36 49.69089 9.08289 15193 ft 382 kts 135°
2026-04-18 11:36 49.67257 9.11283 15770 ft 385 kts 135°
2026-04-18 11:36 49.65405 9.14299 16335 ft 389 kts 135°
2026-04-18 11:37 49.63534 9.17341 16873 ft 393 kts 135°
2026-04-18 11:37 49.61644 9.20412 17432 ft 396 kts 135°
2026-04-18 11:37 49.59739 9.23514 17982 ft 400 kts 135°
2026-04-18 11:37 49.57817 9.26643 18522 ft 404 kts 135°
2026-04-18 11:38 49.55882 9.29790 19032 ft 407 kts 135°
2026-04-18 11:38 49.53932 9.32959 19549 ft 409 kts 135°
2026-04-18 11:38 49.51967 9.36145 20076 ft 411 kts 135°
2026-04-18 11:38 49.49992 9.39340 20593 ft 413 kts 135°
2026-04-18 11:39 49.48002 9.42545 21106 ft 415 kts 136°
2026-04-18 11:39 49.45998 9.45763 21619 ft 418 kts 135°
2026-04-18 11:39 49.43984 9.49000 22130 ft 420 kts 135°
2026-04-18 11:39 49.41957 9.52256 22622 ft 422 kts 135°
2026-04-18 11:40 49.39919 9.55522 23100 ft 425 kts 136°
2026-04-18 11:40 49.37868 9.58803 23572 ft 427 kts 136°
2026-04-18 11:40 49.35808 9.62101 23976 ft 429 kts 136°
2026-04-18 11:40 49.33733 9.65415 24334 ft 432 kts 136°
2026-04-18 11:41 49.31645 9.68745 24672 ft 435 kts 136°
2026-04-18 11:41 49.29546 9.72095 25020 ft 437 kts 136°
2026-04-18 11:41 49.27432 9.75465 25361 ft 439 kts 136°
2026-04-18 11:41 49.25310 9.78844 25702 ft 441 kts 136°
2026-04-18 11:42 49.23177 9.82237 26043 ft 444 kts 136°
2026-04-18 11:42 49.21028 9.85644 26367 ft 446 kts 136°
2026-04-18 11:42 49.18867 9.89063 26692 ft 448 kts 136°
2026-04-18 11:42 49.16697 9.92494 27009 ft 450 kts 136°
2026-04-18 11:43 49.14518 9.95945 27327 ft 452 kts 136°
2026-04-18 11:43 49.12325 9.99410 27636 ft 454 kts 136°
2026-04-18 11:43 49.10125 10.02873 27938 ft 456 kts 136°
2026-04-18 11:43 49.07907 10.06354 28218 ft 458 kts 136°
2026-04-18 11:44 49.05676 10.09839 28509 ft 460 kts 137°
2026-04-18 11:44 49.03382 10.13256 28796 ft 462 kts 138°
2026-04-18 11:44 49.01034 10.16595 29076 ft 463 kts 139°
2026-04-18 11:44 48.98645 10.19900 29370 ft 464 kts 140°
2026-04-18 11:45 48.96244 10.23196 29650 ft 466 kts 140°
2026-04-18 11:45 48.93870 10.26469 29897 ft 468 kts 140°
2026-04-18 11:45 48.91437 10.29860 30163 ft 469 kts 139°
2026-04-18 11:45 48.89066 10.33192 30378 ft 471 kts 139°
2026-04-18 11:46 48.86633 10.36627 30578 ft 472 kts 139°
2026-04-18 11:46 48.84254 10.39989 30778 ft 474 kts 139°
2026-04-18 11:46 48.81861 10.43422 30985 ft 474 kts 137°
2026-04-18 11:46 48.79537 10.46976 31271 ft 474 kts 135°
2026-04-18 11:47 48.77279 10.50610 31545 ft 473 kts 134°
2026-04-18 11:47 48.75052 10.54287 31803 ft 473 kts 134°
2026-04-18 11:47 48.72832 10.57967 32054 ft 473 kts 134°
2026-04-18 11:47 48.70606 10.61621 32324 ft 472 kts 135°
2026-04-18 11:48 48.68361 10.65246 32597 ft 471 kts 135°
2026-04-18 11:48 48.66103 10.68839 32863 ft 471 kts 135°
2026-04-18 11:48 48.63842 10.72407 33129 ft 470 kts 136°
2026-04-18 11:48 48.61576 10.75973 33394 ft 469 kts 136°
2026-04-18 11:49 48.59320 10.79529 33660 ft 469 kts 136°
2026-04-18 11:49 48.57072 10.83088 33920 ft 468 kts 135°
2026-04-18 11:49 48.54835 10.86654 34172 ft 468 kts 135°
2026-04-18 11:49 48.52602 10.90227 34397 ft 467 kts 135°
2026-04-18 11:50 48.50375 10.93794 34612 ft 467 kts 135°
2026-04-18 11:50 48.48147 10.97357 34817 ft 467 kts 135°
2026-04-18 11:50 48.45908 11.00894 35015 ft 467 kts 136°
2026-04-18 11:50 48.43651 11.04417 35159 ft 467 kts 136°
2026-04-18 11:51 48.39146 11.11389 35193 ft 463 kts 136°
2026-04-18 11:51 48.34649 11.18326 35186 ft 463 kts 136°
2026-04-18 11:52 48.30159 11.25263 35187 ft 463 kts 136°
2026-04-18 11:52 48.25918 11.32517 35189 ft 465 kts 125°
2026-04-18 11:53 48.22673 11.40946 35187 ft 466 kts 121°
2026-04-18 11:53 48.19468 11.49406 35187 ft 467 kts 121°
2026-04-18 11:54 48.16244 11.57849 35191 ft 467 kts 121°
2026-04-18 11:54 48.13016 11.66293 35187 ft 467 kts 121°
2026-04-18 11:55 48.09789 11.74738 35187 ft 467 kts 121°
2026-04-18 11:55 48.06552 11.83172 35186 ft 468 kts 121°
2026-04-18 11:56 48.03315 11.91603 35183 ft 468 kts 121°
2026-04-18 11:56 48.00064 12.00023 35177 ft 468 kts 121°
2026-04-18 11:57 47.96799 12.08431 35176 ft 468 kts 121°
2026-04-18 11:57 47.93531 12.16843 35175 ft 469 kts 121°
2026-04-18 11:58 47.90257 12.25254 35178 ft 469 kts 121°
2026-04-18 11:58 47.86993 12.33596 35185 ft 469 kts 121°
2026-04-18 11:59 47.83698 12.41980 35182 ft 469 kts 121°
2026-04-18 11:59 47.80403 12.50355 35185 ft 469 kts 121°
2026-04-18 12:00 47.77102 12.58725 35188 ft 469 kts 121°
2026-04-18 12:00 47.73791 12.67081 35189 ft 469 kts 121°
2026-04-18 12:01 47.68748 12.79515 35165 ft 468 kts 126°
2026-04-18 12:02 47.64376 12.86622 35172 ft 466 kts 136°
2026-04-18 12:02 47.59784 12.93405 35171 ft 466 kts 136°
2026-04-18 12:03 47.55185 13.00186 35178 ft 466 kts 136°
2026-04-18 12:03 47.50588 13.06945 35172 ft 466 kts 136°
2026-04-18 12:04 47.45988 13.13703 35170 ft 467 kts 136°
2026-04-18 12:04 47.41378 13.20453 35170 ft 467 kts 136°
2026-04-18 12:05 47.36753 13.27189 35177 ft 467 kts 136°
2026-04-18 12:05 47.32131 13.33915 35177 ft 467 kts 135°
2026-04-18 12:06 47.27746 13.40985 35182 ft 468 kts 130°
2026-04-18 12:06 47.23542 13.48312 35181 ft 468 kts 130°
2026-04-18 12:07 47.19326 13.55528 35170 ft 468 kts 131°
2026-04-18 12:07 47.15001 13.62689 35170 ft 468 kts 132°
2026-04-18 12:08 47.10650 13.69811 35179 ft 468 kts 132°
2026-04-18 12:08 47.06310 13.76947 35181 ft 469 kts 131°
2026-04-18 12:09 47.02672 13.82939 35176 ft 469 kts 131°
2026-04-18 12:09 46.98333 13.90083 35172 ft 469 kts 131°
2026-04-18 12:10 46.93986 13.97212 35163 ft 469 kts 131°
2026-04-18 12:10 46.89659 14.04277 35169 ft 469 kts 131°
2026-04-18 12:11 46.85300 14.11376 35169 ft 469 kts 131°
2026-04-18 12:11 46.80934 14.18474 35166 ft 470 kts 131°
2026-04-18 12:12 46.76566 14.25566 35166 ft 470 kts 131°
2026-04-18 12:12 46.72187 14.32641 35167 ft 470 kts 131°
2026-04-18 12:13 46.67797 14.39704 35167 ft 470 kts 131°
2026-04-18 12:13 46.63403 14.46760 35162 ft 470 kts 131°
2026-04-18 12:14 46.59008 14.53812 35160 ft 471 kts 131°
2026-04-18 12:14 46.54603 14.60865 35163 ft 471 kts 131°
2026-04-18 12:15 46.50196 14.67897 35162 ft 471 kts 131°
2026-04-18 12:15 46.45782 14.74930 35160 ft 471 kts 131°
2026-04-18 12:16 46.41362 14.81948 35159 ft 472 kts 130°
2026-04-18 12:16 46.36930 14.88958 35165 ft 472 kts 131°
2026-04-18 12:17 46.32503 14.95955 35168 ft 471 kts 131°
2026-04-18 12:17 46.28069 15.02940 35172 ft 471 kts 130°
2026-04-18 12:18 46.23662 15.09874 35171 ft 472 kts 130°
2026-04-18 12:18 46.19212 15.16852 35176 ft 472 kts 130°
2026-04-18 12:19 46.14750 15.23797 35173 ft 472 kts 130°
2026-04-18 12:19 46.10286 15.30747 35191 ft 472 kts 130°
2026-04-18 12:20 46.05823 15.37697 35181 ft 473 kts 130°
2026-04-18 12:20 46.01355 15.44632 35181 ft 473 kts 130°
2026-04-18 12:21 45.96881 15.51557 35177 ft 473 kts 130°
2026-04-18 12:21 45.92403 15.58474 35176 ft 473 kts 130°
2026-04-18 12:22 45.87914 15.65373 35167 ft 473 kts 130°
2026-04-18 12:22 45.83423 15.72263 35173 ft 472 kts 130°
2026-04-18 12:23 45.78935 15.79138 35175 ft 472 kts 130°
2026-04-18 12:23 45.74447 15.86006 35173 ft 472 kts 130°
2026-04-18 12:24 45.69950 15.92850 35190 ft 472 kts 130°
2026-04-18 12:24 45.65441 15.99688 35183 ft 472 kts 130°
2026-04-18 12:25 45.60932 16.06520 35176 ft 473 kts 130°
2026-04-18 12:25 45.56418 16.13350 35171 ft 473 kts 130°
2026-04-18 12:26 45.51901 16.20164 35187 ft 473 kts 129°
2026-04-18 12:26 45.47407 16.26930 35174 ft 473 kts 129°
2026-04-18 12:27 45.42845 16.33780 35166 ft 474 kts 129°
2026-04-18 12:27 45.38338 16.40531 35165 ft 474 kts 130°
2026-04-18 12:28 45.33798 16.47318 35183 ft 474 kts 129°
2026-04-18 12:28 45.29250 16.54098 35171 ft 474 kts 129°
2026-04-18 12:29 45.24691 16.60866 35165 ft 474 kts 129°
2026-04-18 12:29 45.20126 16.67620 35161 ft 474 kts 129°
2026-04-18 12:30 45.15531 16.74331 35157 ft 475 kts 130°
2026-04-18 12:30 45.10901 16.81003 35160 ft 475 kts 129°
2026-04-18 12:31 45.06263 16.87673 35156 ft 475 kts 129°
2026-04-18 12:31 45.01626 16.94336 35152 ft 475 kts 130°
2026-04-18 12:32 44.96988 17.00985 35161 ft 475 kts 129°